Flag for Brazil Weather past 2 weeks in Belém, Para, Brazil

Now
77 °F

Clear.


Feels Like: 78 °F
Forecast: 73 / 87 °F
Wind: 5 mph from East

Location: Belem Aeroporto

Current Time: Oct 26, 2014 at 12:52:33 AM

Latest Report: Oct 26, 2014 at 12:00 AM


Visibility: 10 mi

Pressure: 29.83 "Hg

Humidity: 83%

Dew point: 72 °F

Location of BelémLocation

Historic Weather in Belém — Graph

°F

Belém temperature yesterday

Maximum temperature yesterday: 88 °F (at 12:00 PM)
Minimum temperature yesterday: 75 °F (at 2:00 AM)
Average temperature yesterday: 80 °F

Past Weeks' High & Low Weather Summary

 TemperatureHumidityPressure
High90 °F (Oct 14, 12:00 PM)100% (Oct 20, 2:00 AM)32.55 "Hg (Oct 20, 2:00 AM)
Low72 °F (Oct 20, 2:00 AM)52% (Oct 18, 2:00 PM)29.74 "Hg (Oct 25, 4:00 PM)
Average80 °F80%29.88 "Hg
* Reported Oct 10 11:00 PM — Oct 25 11:00 PM, Belém, Weather by CustomWeather, © 2014

Note: Actual official high and low records may vary slightly from our data, if they occured in-between our weather recording intervals... More about our weather records

Advertising

Belém weather history for previous 24 hours

 ConditionsComfort  
Time TempWeatherWind HumidityBarometerVisibility
11:00 PM
Oct 25
77 °FClear.8 mph83%29.83 "Hg10 mi
10:00 PM77 °FPassing clouds.9 mph83%29.83 "HgN/A
9:00 PM79 °FPassing clouds.9 mph84%29.80 "HgN/A
8:00 PM79 °FPassing clouds.9 mph84%29.80 "HgN/A
7:00 PM81 °FLight rain. Broken clouds.14 mph84%29.77 "HgN/A
6:00 PM84 °FScattered clouds.8 mph74%29.77 "HgN/A
5:00 PM84 °FScattered clouds.9 mph74%29.74 "HgN/A
4:00 PM84 °FLight rain. Partly sunny.15 mph79%29.74 "HgN/A
3:00 PM86 °FPartly sunny.10 mph70%29.77 "HgN/A
2:00 PM86 °FPartly sunny.12 mph70%29.80 "HgN/A
1:00 PM88 °FPartly sunny.6 mph66%29.83 "HgN/A
12:00 PM88 °FPartly sunny.8 mph62%29.86 "HgN/A
11:00 AM86 °FPartly sunny.8 mph66%29.89 "HgN/A
10:00 AM82 °FPartly sunny.9 mph66%29.89 "HgN/A
9:00 AM82 °FPartly sunny.12 mph66%29.89 "HgN/A
8:00 AM81 °FPassing clouds.7 mph70%29.86 "HgN/A
7:00 AM77 °FSunny.3 mph89%29.83 "Hg10 mi
6:00 AM75 °FClear.3 mph94%29.80 "Hg10 mi
5:00 AM75 °FClear.2 mph94%30.07 "Hg10 mi
4:00 AM75 °FClear.3 mph94%29.77 "Hg10 mi
3:00 AM75 °FClear.2 mph94%29.77 "Hg10 mi
2:00 AM75 °FClear.2 mph94%29.77 "Hg10 mi
1:00 AM77 °FClear.2 mph89%29.80 "Hg10 mi
12:00 AM77 °FClear.5 mph79%29.83 "Hg10 mi
Weather by CustomWeather, © 2014

See weather overviewHow to use our weather pages